Wind_Speed
18 12 24 24 22 21 10 15 14 8 8 6 15 17 16 15 13 13 10 7 3 2 5 9 12 13 15 16 18 19 21 21 20 19 20 25 28 30 32 33 33 29 27 35
14 25 25 18 18 20 22 19 19 15 16 11 15 16 13 14 15 8 7 8 4 2 7 11 16 18 18 18 19 20 21 23 22 21 21 25 27 29 31 30 30 27 31 34
20 19 10 21 18 19 21 21 16 15 5 12 13 18 14 6 7 8 7 5 3 4 7 10 13 17 20 23 23 23 23 23 24 23 23 24 28 27 24 28 29 34 32 33
10 19 19 14 23 22 22 16 15 12 9 10 7 4 12 8 11 10 8 5 3 5 8 10 11 15 19 20 23 24 23 24 24 23 23 24 28 28 32 31 33 32 34 36
16 21 24 19 16 17 19 7 14 15 13 13 15 7 6 13 10 12 9 5 4 6 9 11 13 16 18 20 24 25 23 25 26 24 23 26 29 32 30 26 28 29 35 40
14 1 5 15 17 16 9 6 10 10 11 13 16 12 10 13 11 11 8 5 6 9 11 12 15 17 18 21 22 24 24 27 26 25 25 27 32 35 30 27 26 27 31 36
13 19 18 13 14 14 21 12 6 8 8 12 2 9 4 10 6 5 6 5 8 10 12 13 16 18 22 24 26 26 25 30 29 28 27 26 32 37 31 30 24 22 27 28
9 7 19 9 15 10 22 19 9 10 11 10 6 8 6 10 12 10 7 6 8 10 12 15 16 19 22 25 27 28 29 33 35 32 31 28 27 31 29 26 21 24 25 29
13 8 4 4 5 6 15 19 18 9 5 6 8 7 8 9 8 6 5 6 8 10 12 15 17 21 24 25 28 29 29 32 33 33 34 29 22 25 21 22 23 25 26 26
1 5 4 5 5 4 6 8 7 8 12 15 12 10 3 8 5 5 6 6 7 10 13 14 16 21 23 24 26 28 27 29 33 35 33 31 12 16 19 25 24 27 26 22
7 6 5 2 2 2 4 5 4 4 5 7 11 2 4 8 5 5 7 8 10 11 13 13 14 21 23 24 26 28 32 34 36 36 35 32 9 13 17 21 21 27 25 25
5 2 4 2 3 2 3 2 3 5 8 4 6 6 4 5 6 7 7 8 8 10 11 12 14 21 24 25 28 29 30 32 34 33 30 27 19 11 14 20 25 28 27 27
2 2 3 2 1 1 2 1 2 2 1 9 9 3 5 3 2 2 6 8 7 8 11 12 13 16 20 24 27 30 32 31 37 33 30 26 25 20 15 4 15 22 21 24
1 3 5 5 3 4 4 7 4 2 3 4 9 13 4 8 15 15 1 4 5 8 10 12 12 14 20 23 26 29 31 32 35 26 25 26 27 24 20 12 3 12 16 16
1 3 2 4 4 2 2 6 7 10 10 6 9 11 14 16 18 9 2 4 5 8 10 11 12 13 19 23 25 28 30 31 29 29 33 32 27 30 20 16 12 7 11 15
2 3 1 2 3 4 8 9 10 11 12 14 15 16 11 17 5 2 2 5 5 8 10 12 13 15 18 22 24 25 28 30 29 30 28 26 32 26 24 22 18 19 12 12
3 4 3 2 2 1 7 5 10 9 7 7 11 12 17 15 3 4 5 8 7 9 10 11 12 14 17 22 22 23 24 25 28 28 30 32 30 27 29 26 25 26 27 24
6 6 3 3 3 4 6 5 7 3 9 5 8 12 10 9 10 10 10 9 9 10 9 11 13 15 18 20 21 21 22 24 25 28 31 33 33 32 31 26 26 28 29 32
4 3 3 3 5 4 4 4 3 3 2 6 8 10 2 8 10 11 10 10 9 9 9 11 13 14 17 20 20 20 23 23 26 28 28 29 30 29 29 30 27 26 28 32
6 2 3 3 3 4 5 7 4 1 6 5 7 8 7 10 5 5 9 9 9 11 10 12 12 14 19 21 20 21 23 24 26 26 25 26 27 29 28 27 28 26 27 32
5 2 5 5 3 5 1 9 3 6 5 6 7 8 8 4 6 8 8 9 10 10 11 11 13 17 19 18 20 22 22 24 22 25 27 27 29 28 28 27 27 27 28 31
4 5 4 3 3 2 11 1 4 5 6 5 7 9 13 12 10 9 9 8 10 11 13 13 15 18 19 20 20 21 22 22 23 24 25 26 27 28 28 27 28 28 25 26
3 3 2 4 4 5 7 6 4 4 6 7 7 8 8 9 9 9 7 7 10 13 13 14 15 17 19 20 20 21 20 18 19 22 24 25 27 27 27 28 27 24 26 24
4 4 2 6 5 6 6 6 7 7 8 8 9 8 10 10 7 7 6 7 11 14 15 15 17 18 19 20 21 20 19 17 17 19 19 20 23 27 30 26 27 27 24 21
3 5 6 5 7 8 6 6 7 8 9 10 9 9 9 8 7 8 8 11 14 15 16 16 16 17 19 19 20 21 21 18 17 17 17 18 18 19 20 29 32 27 31 28
1 3 3 2 8 6 8 7 8 8 9 9 10 10 10 10 9 10 10 12 13 14 14 15 16 16 17 18 20 21 22 21 18 17 17 17 16 15 15 14 17 25 26 27
Wind_Direction
203 212 223 226 225 239 285 267 248 205 219 261 253 257 254 249 251 241 246 196 193 335 341 353 355 349 340 333 323 316 310 309 306 291 271 243 235 229 227 226 226 217 213 208
210 231 240 232 240 238 247 249 254 265 259 245 259 254 242 248 248 245 181 164 135 330 352 357 353 349 346 337 331 320 311 308 303 291 276 264 242 238 234 230 225 216 214 206
217 248 236 250 238 231 237 244 252 254 212 234 263 261 237 201 166 156 140 122 129 31 359 357 353 347 340 336 333 325 315 308 303 293 280 268 257 243 229 226 222 217 211 207
233 247 290 272 239 227 237 221 244 250 249 252 193 262 174 176 172 182 161 161 77 28 4 357 348 344 340 335 329 325 318 311 306 298 283 263 258 235 228 227 217 214 203 202
206 200 195 234 234 223 247 229 233 241 250 262 238 251 173 177 180 176 163 121 70 21 4 356 351 341 334 338 331 326 323 316 310 301 283 266 254 246 237 230 221 211 198 200
238 272 181 216 235 252 260 238 235 239 240 244 245 227 172 188 188 146 136 99 31 9 360 354 348 342 339 338 336 328 331 322 312 304 289 262 259 247 233 224 219 203 195 194
213 220 218 208 213 204 215 216 212 226 217 242 182 226 208 134 119 104 111 57 21 6 359 351 350 346 343 340 338 335 337 322 320 311 298 274 261 237 232 228 214 196 199 191
209 211 212 187 231 203 197 203 218 215 227 231 147 230 114 94 89 91 74 34 10 2 360 355 352 348 342 340 340 340 342 328 326 317 308 291 256 225 226 223 213 204 204 208
195 203 167 187 209 229 193 217 241 279 271 273 203 149 112 113 111 103 63 19 9 5 1 357 353 354 342 346 342 341 342 330 324 325 321 312 241 216 213 213 215 212 213 213
60 139 190 143 193 112 255 169 201 220 245 240 238 241 186 140 115 71 44 22 15 7 1 360 357 351 343 349 344 342 348 335 335 334 331 328 230 213 211 208 208 199 207 199
32 269 151 217 335 61 168 191 233 281 276 270 270 252 89 114 81 41 30 20 11 2 1 358 354 352 351 351 350 347 354 349 343 340 340 346 279 219 208 199 196 193 183 181
206 272 145 113 23 289 283 279 271 252 221 255 296 285 141 116 63 10 14 14 4 1 2 358 358 358 355 357 354 357 354 351 344 339 344 350 6 13 196 195 188 190 184 182
198 140 186 217 200 35 241 127 131 139 243 254 261 267 149 124 246 104 338 350 356 359 7 2 5 359 357 0 1 358 355 350 349 344 355 359 7 12 12 249 186 185 180 185
235 177 268 252 57 102 173 172 165 167 224 286 244 291 222 289 307 318 35 337 355 16 15 6 4 359 359 3 8 1 357 354 347 344 3 7 7 11 6 27 97 196 197 190
31 181 183 86 109 136 192 213 221 238 248 253 288 300 303 316 317 341 36 26 26 30 19 8 4 3 358 5 10 5 1 353 353 1 9 9 5 21 9 35 49 90 172 172
3 129 155 236 243 257 265 255 251 250 260 265 273 277 360 333 6 53 46 51 23 28 21 10 6 7 360 10 7 4 3 359 360 11 11 8 21 18 25 36 40 41 96 114
135 139 164 195 140 255 254 278 263 243 250 288 284 337 329 318 182 43 52 50 35 27 21 8 4 5 6 12 9 8 3 3 9 12 13 14 18 22 29 39 55 48 54 55
154 154 171 147 181 224 78 41 48 359 307 342 318 335 340 61 80 70 48 52 40 28 18 15 6 7 14 16 15 14 13 12 15 16 18 17 20 25 28 34 46 60 57 53
187 159 147 209 213 86 159 41 359 352 306 22 342 328 193 122 116 67 53 48 41 29 27 22 17 21 24 23 19 21 22 21 21 19 18 18 22 27 31 31 32 49 62 64
171 224 233 177 249 218 76 4 338 207 236 23 337 305 239 198 240 78 54 43 39 32 23 22 24 25 33 26 28 29 26 24 20 18 21 23 27 30 31 34 38 44 58 65
142 163 214 202 254 105 5 325 347 227 46 16 15 343 238 100 51 87 66 50 37 34 30 31 34 37 30 27 31 32 28 27 19 23 29 30 34 34 37 39 42 44 50 59
181 188 188 193 231 171 358 151 315 9 63 74 68 60 85 95 89 76 60 46 36 33 36 36 42 39 32 31 34 35 32 23 24 28 34 33 36 39 39 40 42 43 45 49
182 330 69 353 59 77 45 65 35 38 89 84 93 81 88 88 72 61 55 45 40 37 39 39 43 45 37 34 31 30 30 30 32 34 33 34 38 39 40 42 37 39 40 45
145 171 104 183 99 99 89 80 75 75 85 84 82 87 86 90 86 79 71 61 54 45 42 38 41 40 37 33 33 30 23 30 36 40 38 37 40 42 40 43 45 44 39 43
54 163 142 89 123 118 95 99 108 98 94 93 92 94 98 104 96 93 77 62 51 45 42 42 42 41 36 34 34 30 27 25 34 40 41 39 39 43 52 51 48 51 50 51
221 149 193 94 146 91 114 126 127 117 112 112 112 107 101 103 100 91 78 68 61 52 42 41 42 41 35 34 33 30 29 31 32 35 37 37 42 40 41 47 57 55 59 56
Height
760 762 738 737 738 737 738 731 729 724 725 738 730 726 721 718 717 718 718 724 728 732 734 735 737 738 738 736 735 734 730 728 726 723 719 716 714 716 717 718 722 723 726 731
755 749 735 733 736 742 740 738 733 727 727 731 726 719 710 711 711 712 716 723 729 731 732 733 734 734 735 734 733 731 728 725 723 720 717 712 708 708 710 713 714 714 721 724
756 743 735 736 743 748 740 736 732 732 724 726 724 718 704 709 712 716 718 726 729 732 734 734 735 735 733 731 730 728 725 723 719 716 712 708 703 702 703 705 705 708 714 718
757 744 747 740 739 737 733 728 731 731 732 723 716 712 705 704 713 717 720 725 728 732 734 734 735 735 735 732 730 726 722 717 713 711 706 703 697 690 692 694 696 700 705 709
731 736 742 754 727 728 731 725 732 726 725 723 716 723 690 701 712 713 719 725 730 735 736 735 735 735 734 732 728 723 717 713 708 705 703 699 692 685 685 688 691 694 695 699
737 740 743 744 744 736 731 734 727 725 721 726 711 711 690 703 700 708 719 728 734 736 735 735 735 734 731 729 727 722 713 708 703 698 694 690 685 681 677 680 685 687 688 692
731 733 722 718 723 726 739 734 740 742 733 718 697 704 690 697 706 710 721 731 736 737 737 735 733 731 729 728 723 717 708 704 697 691 685 679 674 673 670 674 678 682 685 688
725 729 715 709 714 718 725 723 732 728 710 700 708 709 701 712 718 726 731 735 738 738 738 737 736 734 731 727 721 713 703 698 689 683 675 668 662 662 665 670 674 678 681 684
712 718 716 715 715 711 713 716 704 710 706 707 693 701 716 724 728 730 733 736 738 739 739 739 738 735 732 725 720 714 703 698 690 679 668 657 652 655 659 664 669 673 675 678
712 720 718 719 717 715 709 702 721 714 718 709 689 687 686 721 724 728 732 736 738 740 741 741 739 738 734 726 721 714 705 700 688 677 667 655 652 654 656 659 662 668 671 674
718 718 721 720 719 712 714 712 716 710 710 708 701 692 714 721 727 730 733 738 741 742 744 744 743 740 735 728 723 715 702 696 688 679 669 659 653 653 654 654 658 663 666 669
727 718 718 724 728 727 723 718 715 716 712 713 717 705 717 724 732 736 736 742 746 749 749 747 745 740 737 731 726 716 709 702 695 686 676 666 656 652 653 655 655 660 664 668
723 719 727 725 728 729 727 730 731 731 731 722 719 708 724 733 730 735 744 746 748 751 751 749 747 745 741 735 728 718 712 707 698 690 678 671 663 657 654 655 656 657 662 666
726 722 717 709 718 723 735 735 734 739 736 722 718 713 718 722 723 726 738 750 751 753 754 755 752 749 745 739 730 723 717 712 702 699 686 678 668 664 660 655 652 659 662 665
729 725 730 732 734 734 734 734 734 735 731 739 721 725 724 725 726 729 746 751 756 760 761 760 757 752 749 743 734 730 723 717 711 700 683 682 675 666 661 657 658 659 661 664
737 737 736 735 735 737 737 731 731 732 731 731 730 727 725 735 740 751 754 756 761 763 765 764 762 757 756 747 741 736 730 724 715 706 701 696 683 679 674 668 665 666 660 664
738 741 742 734 741 741 737 731 727 727 728 730 731 731 742 740 750 757 761 765 768 770 770 770 767 764 760 752 748 742 737 732 723 716 709 700 693 687 682 678 674 676 670 673
742 742 745 738 745 743 744 747 748 752 745 753 753 754 758 763 768 771 773 773 775 776 776 774 771 768 762 757 753 749 744 738 731 723 715 708 700 696 693 692 689 684 681 679
740 740 744 742 732 732 754 759 766 763 753 769 767 764 767 771 770 777 780 782 783 782 780 779 776 771 767 762 758 753 749 744 738 731 726 721 715 710 707 701 699 695 691 687
746 743 741 743 741 733 755 760 761 770 754 773 775 771 766 769 751 775 785 786 786 785 784 782 778 775 770 767 763 758 754 750 745 741 736 731 726 721 718 715 711 707 701 697
749 753 745 739 736 749 770 763 765 755 763 776 778 776 768 773 779 788 790 790 790 790 788 785 781 777 774 771 767 763 760 757 754 749 744 739 735 731 728 725 720 716 711 706
739 741 740 735 742 742 768 760 761 778 779 782 783 784 782 786 791 793 794 795 795 793 790 787 784 781 779 775 771 769 766 764 760 756 751 748 744 741 737 733 730 726 723 719
749 756 745 757 759 775 778 781 783 783 782 786 788 790 790 792 794 796 799 799 798 795 792 789 787 785 784 781 778 774 772 769 765 761 758 756 753 749 746 742 739 736 734 731
753 755 753 760 771 775 782 785 786 788 789 792 793 794 795 798 801 802 802 802 801 800 797 794 791 790 788 786 783 780 777 774 771 767 766 764 760 758 755 751 749 747 745 746
744 747 754 768 775 778 783 786 790 793 794 796 798 799 801 802 804 804 804 804 803 803 802 800 799 797 794 792 790 786 783 779 776 774 771 769 767 766 764 763 760 759 758 754
752 756 751 751 765 771 782 789 792 794 797 799 800 802 805 806 807 807 807 808 808 808 808 806 805 803 802 798 795 792 788 785 782 779 777 776 774 773 771 770 770 769 768 766